Philadelphia, PA

12:40 PM EST on November 15, 2019 (GMT -0500)
Philadelphia International

Weather History for KPHL - May, 2019

Change the Weather History Date:

Saturday, May 4, 2019

  Actual Average Record
Temperature  
Mean Temperature 66 °F 60 °F  
Max Temperature 75 °F 70 °F 91 °F (2001)
Min Temperature 57 °F 50 °F 35 °F (1957)
Degree Days  
Heating Degree Days 0 6  
Month to date heating degree days 12 25  
Since 1 July heating degree days 4297 4515  
Cooling Degree Days 1 1  
Month to date cooling degree days 4 4  
Year to date cooling degree days 28 17  
Growing Degree Days 16 (Base 50)    
Moisture  
Dew Point 56 °F    
Average Humidity 75    
Maximum Humidity 86    
Minimum Humidity 64    
Precipitation  
Precipitation T in 0.11 in 1.88 in (1921)
Month to date precipitation T 0.43  
Year to date precipitation 14.06 13.46  
Snow  
Snow 0.00 in 0.00 in 0.00 in ()
Month to date snowfall 0.0 0.0  
Since 1 July snowfall 17.1 22.4  
Snow Depth 0.00 in    
Sea Level Pressure  
Sea Level Pressure 29.87 in    
Wind  
Wind Speed 6 mph (East)    
Max Wind Speed 12 mph    
Max Gust Speed 14 mph    
Visibility 9 miles    
Events Rain    
T = Trace of Precipitation, MM = Missing Value Source: NWS Daily Summary

Daily Weather History Graph

Daily Weather History Graph

Search for Another Location

Airport or City:

Astronomy

May. 04, 2019 Rise Set
Actual Time 5:57 AM EDT 7:58 PM EDT
Civil Twilight 5:28 AM EDT 8:27 PM EDT
Nautical Twilight 4:52 AM EDT 9:03 PM EDT
Astronomical Twilight 4:13 AM EDT 9:43 PM EDT
Moon 6:07 AM EDT (5/4) 7:45 PM EDT (5/4)
Length of Visible Light 14h 59m
Length of Day
14h 00m
Waning Crescent, 0% of the Moon is Illuminated
May 4
Waning Crescent
May 4
New
May 11
First Quarter
May 18
Full
May 26
Last Quarter

Hourly Weather History & Observations

Time (EDT) Temp. Dew Point Humidity Pressure Visibility Wind Dir Wind Speed Gust Speed Precip Events Conditions
12:17 AM 60.1 °F 54.0 °F 80% 29.98 in 10.0 mi NNE 9.2 mph - N/A   Overcast
12:54 AM 60.1 °F 54.0 °F 80% 29.97 in 10.0 mi North 8.1 mph - 0.00 in Rain Light Rain
1:04 AM 59.0 °F 54.0 °F 83% 29.95 in 10.0 mi ENE 6.9 mph - 0.00 in   Overcast
1:54 AM 59.0 °F 54.0 °F 83% 29.91 in 10.0 mi East 6.9 mph - 0.00 in   Overcast
2:54 AM 57.9 °F 53.1 °F 84% 29.89 in 10.0 mi East 5.8 mph - N/A   Overcast
3:54 AM 57.0 °F 53.1 °F 87% 29.88 in 10.0 mi East 8.1 mph - N/A   Mostly Cloudy
4:32 AM 57.0 °F 53.1 °F 87% 29.88 in 9.0 mi ENE 3.5 mph - N/A   Mostly Cloudy
4:54 AM 57.0 °F 53.1 °F 87% 29.88 in 9.0 mi NE 5.8 mph - N/A   Overcast
5:48 AM 57.2 °F 53.6 °F 88% 29.89 in 8.0 mi NE 6.9 mph - N/A   Overcast
5:54 AM 57.0 °F 53.1 °F 87% 29.88 in 8.0 mi NNE 8.1 mph - N/A   Overcast
6:21 AM 57.0 °F 53.1 °F 87% 29.89 in 6.0 mi East 5.8 mph - N/A   Overcast
6:38 AM 57.9 °F 53.1 °F 84% 29.89 in 7.0 mi ENE 5.8 mph - N/A   Overcast
6:54 AM 57.9 °F 54.0 °F 87% 29.89 in 7.0 mi East 4.6 mph - N/A   Overcast
7:25 AM 57.9 °F 54.0 °F 87% 29.90 in 8.0 mi East 5.8 mph - N/A   Overcast
7:54 AM 59.0 °F 54.0 °F 83% 29.90 in 7.0 mi ENE 5.8 mph - N/A   Overcast
8:39 AM 59.0 °F 55.0 °F 87% 29.90 in 6.0 mi East 6.9 mph - 0.00 in Rain Light Rain
8:51 AM 59.0 °F 55.4 °F 88% 29.89 in 6.0 mi East 6.9 mph - 0.00 in   Overcast
8:54 AM 60.1 °F 55.0 °F 83% 29.89 in 6.0 mi East 8.1 mph - 0.00 in   Haze
9:54 AM 61.0 °F 55.0 °F 81% 29.90 in 7.0 mi ESE 3.5 mph - N/A   Overcast
10:54 AM 63.0 °F 57.0 °F 81% 29.89 in 8.0 mi ESE 6.9 mph - 0.00 in   Overcast
11:20 AM 63.0 °F 55.9 °F 78% 29.89 in 9.0 mi ESE 5.8 mph - 0.00 in   Overcast
11:54 AM 64.0 °F 55.9 °F 75% 29.88 in 7.0 mi East 4.6 mph - 0.00 in   Overcast
12:54 PM 66.9 °F 59.0 °F 76% 29.86 in 8.0 mi East 5.8 mph - N/A   Mostly Cloudy
1:54 PM 71.1 °F 59.0 °F 66% 29.84 in 9.0 mi East 8.1 mph - N/A   Mostly Cloudy
2:40 PM 73.0 °F 60.1 °F 64% 29.82 in 10.0 mi East 5.8 mph - N/A   Mostly Cloudy
2:54 PM 73.0 °F 60.1 °F 64% 29.81 in 10.0 mi ESE 6.9 mph - N/A   Mostly Cloudy
3:54 PM 73.9 °F 60.1 °F 62% 29.81 in 10.0 mi SE 3.5 mph - N/A   Overcast
4:54 PM 73.9 °F 60.1 °F 62% 29.80 in 10.0 mi East 4.6 mph - N/A   Overcast
5:54 PM 73.0 °F 61.0 °F 66% 29.79 in 10.0 mi East 4.6 mph - N/A   Overcast
6:54 PM 72.0 °F 61.0 °F 68% 29.77 in 10.0 mi East 3.5 mph - N/A   Overcast
7:54 PM 70.0 °F 60.1 °F 71% 29.78 in 10.0 mi ESE 3.5 mph - N/A   Overcast
8:54 PM 68.0 °F 60.1 °F 76% 29.80 in 10.0 mi ESE 6.9 mph - N/A   Overcast
9:54 PM 66.0 °F 59.0 °F 78% 29.81 in 10.0 mi East 4.6 mph - N/A   Overcast
10:54 PM 64.0 °F 57.9 °F 80% 29.82 in 10.0 mi East 8.1 mph - N/A   Overcast
11:54 PM 63.0 °F 57.0 °F 81% 29.81 in 10.0 mi East 5.8 mph - N/A   Overcast